Location: ???????
(55.4362°N, 38.1183°E)
Time: 01:42:28
(UTC+00:00)

METEOR M2 - Pass Details

Date: 30 November 2021
Orbit: 818 x 827 km, 98.4° (Epoch: 28 January)

Event Time Altitude Azimuth Distance (km) Brightness Sun altitude
Rises 13:59:59 0° 116° (ESE) 3,364 ? -7.6°
Reaches altitude 10° 14:02:46 10° 102° (ESE) 2,434 ? -8.0°
Maximum altitude 14:06:54 23° 52° (NE) 1,699 ? -8.5°
Drops below altitude 10° 14:11:01 10° 2° (N) 2,441 ? -9.0°
Sets 14:13:48 0° 349° (N) 3,377 ? -9.4°
